LEMUR-2-WALLACE

Last updated on Tue Dec 08 2020 00:02:03 GMT+0000 (Coordinated Universal Time)

1 46910U 20081F 20342.55206952 .00002101 00000-0 17642-3 0 9993 2 46910 36.9033 281.4947 0008141 227.5937 132.4113 14.98966722 4520
UTC large
Height (km)
Speed (km/s)
/
Latitude / Longitude
Inclination (degrees)
Orbital Period (minutes)
Azimuth
Elevation
Range (km)
Doppler Factor

Next 0 passes for location: London (51.5072 / 0.1276)

Sorry there are no passes over London.
LEMUR-2-WALLACE